C/2019 B3 ( PanSTARRS )

Japanese version
Home page
Updated on December 11, 2022

---------------------------------------------------------------------

* Profile

Discovery Date January 24, 2019
Magnitude 19.6 mag
Discoverer Pan-STARRS 1 telescope (Haleakala)

* Pictures

* Orbital Elements

Epoch 2022 Aug. 9.0 TT = JDT 2459800.5
T 2021 Jan. 20.43926 TT                                 Rudenko
q   6.8242407            (2000.0)            P               Q
z  -0.0001206      Peri.  263.95345     -0.11609607     +0.99292289
 +/-0.0000011      Node   358.43724     +0.00232611     -0.02491504
e   1.0008229      Incl.   66.53509     -0.99323526     -0.11611791
From 178 observations 2019 Jan. 24-2022 Sept. 2, mean residual 0".5.

* Magnitudes Graph

        m1 = 5.0 + 5 log d + 10.0 log r(t - 300)

---------------------------------------------------------------------

The orbital elements are published on M.P.E.C. 2022-R68.
The magnitudes graphs are made with Comet for Windows.

---------------------------------------------------------------------

Copyright(C) Seiichi Yoshida (comet@aerith.net). All rights reserved.